GEC168 ENBR-EDDF

Flight info

Callsign GEC168
Flight time 1h 42m
Altitude 35000
Route TUXIL DCT ZOL DCT GREFI DCT SOGPO DCT DIXAT DIXAT1A
Aircraft B77L/H-SDE1E2E3FGHIJ2J3J4J5M1RWXY/LB1D1

Departure

Time 2026-05-06 18:25
Airport Bergen Airport, Flesland (ENBR)

Arrival

Time 2026-05-06 20:07
Airport Frankfurt Main Airport (EDDF)
Time Latitude Longitude Altitude Speed Heading
2026-05-06 17:49 60.28485 5.22670 178 ft 0 kts 81°
2026-05-06 18:11 60.28483 5.22644 178 ft 4 kts 75°
2026-05-06 18:11 60.28474 5.22598 179 ft 4 kts 50°
2026-05-06 18:11 60.28456 5.22567 179 ft 4 kts 16°
2026-05-06 18:11 60.28438 5.22563 179 ft 1 kts 349°
2026-05-06 18:16 60.28466 5.22552 179 ft 11 kts 350°
2026-05-06 18:16 60.28551 5.22523 178 ft 13 kts 349°
2026-05-06 18:16 60.28637 5.22494 178 ft 13 kts 351°
2026-05-06 18:17 60.28683 5.22408 178 ft 8 kts 294°
2026-05-06 18:17 60.28727 5.22348 178 ft 8 kts 349°
2026-05-06 18:17 60.28783 5.22328 178 ft 8 kts 350°
2026-05-06 18:17 60.28841 5.22308 178 ft 9 kts 350°
2026-05-06 18:18 60.28900 5.22287 178 ft 9 kts 349°
2026-05-06 18:18 60.28958 5.22266 178 ft 9 kts 351°
2026-05-06 18:18 60.29017 5.22249 178 ft 9 kts 352°
2026-05-06 18:18 60.29077 5.22230 178 ft 9 kts 351°
2026-05-06 18:19 60.29137 5.22210 179 ft 9 kts 350°
2026-05-06 18:19 60.29198 5.22189 180 ft 9 kts 350°
2026-05-06 18:19 60.29259 5.22168 182 ft 9 kts 351°
2026-05-06 18:19 60.29358 5.22134 181 ft 19 kts 349°
2026-05-06 18:20 60.29491 5.22088 180 ft 20 kts 351°
2026-05-06 18:20 60.29633 5.22040 174 ft 22 kts 350°
2026-05-06 18:20 60.29786 5.21991 173 ft 22 kts 352°
2026-05-06 18:20 60.29938 5.21943 173 ft 22 kts 351°
2026-05-06 18:21 60.30090 5.21896 175 ft 22 kts 351°
2026-05-06 18:21 60.30242 5.21843 173 ft 22 kts 351°
2026-05-06 18:21 60.30394 5.21794 176 ft 22 kts 351°
2026-05-06 18:21 60.30547 5.21744 179 ft 22 kts 351°
2026-05-06 18:22 60.30659 5.21673 182 ft 8 kts 305°
2026-05-06 18:22 60.30667 5.21587 182 ft 4 kts 267°
2026-05-06 18:22 60.30667 5.21586 182 ft 0 kts 267°
2026-05-06 18:23 60.30667 5.21576 182 ft 6 kts 267°
2026-05-06 18:24 60.30630 5.21410 183 ft 13 kts 211°
2026-05-06 18:24 60.30611 5.21405 183 ft 0 kts 176°
2026-05-06 18:25 60.30607 5.21405 183 ft 10 kts 176°
2026-05-06 18:25 60.30135 5.21559 172 ft 124 kts 171°
2026-05-06 18:25 60.29025 5.21902 523 ft 185 kts 172°
2026-05-06 18:25 60.27706 5.22328 1604 ft 201 kts 173°
2026-05-06 18:26 60.26259 5.22826 2473 ft 222 kts 172°
2026-05-06 18:26 60.24632 5.23381 2944 ft 250 kts 172°
2026-05-06 18:26 60.22799 5.23970 3388 ft 279 kts 172°
2026-05-06 18:26 60.20965 5.24572 4979 ft 264 kts 173°
2026-05-06 18:27 60.19143 5.25183 5718 ft 268 kts 173°
2026-05-06 18:27 60.17317 5.25792 6017 ft 273 kts 172°
2026-05-06 18:27 60.15431 5.26427 6167 ft 276 kts 172°
2026-05-06 18:27 60.13528 5.27072 7150 ft 276 kts 172°
2026-05-06 18:28 60.11629 5.27714 8242 ft 278 kts 173°
2026-05-06 18:28 60.09731 5.28356 9227 ft 283 kts 173°
2026-05-06 18:28 60.07765 5.28957 10163 ft 288 kts 175°
2026-05-06 18:28 60.05725 5.29502 10812 ft 305 kts 176°
2026-05-06 18:29 60.03520 5.30067 11061 ft 334 kts 176°
2026-05-06 18:29 60.01108 5.30687 11311 ft 363 kts 175°
2026-05-06 18:29 59.98554 5.31359 12006 ft 376 kts 176°
2026-05-06 18:29 59.95933 5.32060 12929 ft 384 kts 176°
2026-05-06 18:30 59.93265 5.32775 13937 ft 388 kts 177°
2026-05-06 18:30 59.90571 5.33496 14862 ft 392 kts 178°
2026-05-06 18:30 59.87850 5.34223 15791 ft 396 kts 178°
2026-05-06 18:30 59.85135 5.34947 16686 ft 400 kts 179°
2026-05-06 18:31 59.82350 5.35682 17353 ft 407 kts 179°
2026-05-06 18:31 59.79527 5.36426 18274 ft 409 kts 180°
2026-05-06 18:31 59.76696 5.36994 19104 ft 410 kts 182°
2026-05-06 18:31 59.73836 5.37413 19852 ft 413 kts 183°
2026-05-06 18:32 59.70951 5.37822 20572 ft 418 kts 183°
2026-05-06 18:32 59.68028 5.38272 21258 ft 423 kts 183°
2026-05-06 18:32 59.65076 5.38753 21961 ft 428 kts 183°
2026-05-06 18:32 59.62089 5.39350 22652 ft 435 kts 181°
2026-05-06 18:33 59.59072 5.40120 23340 ft 440 kts 180°
2026-05-06 18:33 59.56025 5.40949 23960 ft 444 kts 180°
2026-05-06 18:33 59.52946 5.41778 24580 ft 447 kts 180°
2026-05-06 18:33 59.49868 5.42585 25234 ft 448 kts 180°
2026-05-06 18:34 59.46771 5.43377 25892 ft 449 kts 180°
2026-05-06 18:34 59.43659 5.44159 26504 ft 451 kts 180°
2026-05-06 18:34 59.40531 5.44941 27109 ft 454 kts 180°
2026-05-06 18:34 59.37427 5.45864 27721 ft 458 kts 178°
2026-05-06 18:35 59.34277 5.46992 28322 ft 461 kts 177°
2026-05-06 18:35 59.31112 5.48197 28864 ft 464 kts 176°
2026-05-06 18:35 59.27933 5.49416 29376 ft 466 kts 176°
2026-05-06 18:35 59.24744 5.50620 29878 ft 468 kts 177°
2026-05-06 18:36 59.21537 5.51809 30363 ft 468 kts 177°
2026-05-06 18:36 59.18321 5.52983 30743 ft 470 kts 177°
2026-05-06 18:36 59.15091 5.54147 31071 ft 473 kts 176°
2026-05-06 18:36 59.11891 5.55296 31424 ft 475 kts 176°
2026-05-06 18:37 59.08634 5.56462 31812 ft 476 kts 176°
2026-05-06 18:37 59.06427 5.57253 32076 ft 477 kts 176°
2026-05-06 18:37 59.02094 5.58803 32582 ft 479 kts 176°
2026-05-06 18:37 58.98812 5.59976 32949 ft 480 kts 176°
2026-05-06 18:38 58.95521 5.61150 33341 ft 481 kts 176°
2026-05-06 18:38 58.92216 5.62326 33744 ft 482 kts 176°
2026-05-06 18:38 58.88916 5.63484 34120 ft 481 kts 177°
2026-05-06 18:38 58.85604 5.64264 34424 ft 477 kts 182°
2026-05-06 18:39 58.82294 5.64494 34763 ft 475 kts 184°
2026-05-06 18:39 58.78975 5.64656 34975 ft 478 kts 184°
2026-05-06 18:40 58.68978 5.65166 35033 ft 475 kts 184°
2026-05-06 18:40 58.62398 5.65564 35049 ft 472 kts 184°
2026-05-06 18:41 58.55845 5.65969 35042 ft 471 kts 184°
2026-05-06 18:41 58.49349 5.66369 35044 ft 470 kts 184°
2026-05-06 18:42 58.42815 5.66769 35046 ft 470 kts 184°
2026-05-06 18:42 58.36267 5.67167 35045 ft 471 kts 184°
2026-05-06 18:43 58.29720 5.67565 35044 ft 471 kts 183°
2026-05-06 18:43 58.23166 5.67962 35043 ft 472 kts 183°
2026-05-06 18:44 58.16599 5.68360 35042 ft 472 kts 183°
2026-05-06 18:44 58.10043 5.68755 35038 ft 471 kts 183°
2026-05-06 18:45 58.03486 5.69148 35040 ft 471 kts 183°
2026-05-06 18:45 57.96940 5.69540 35044 ft 470 kts 183°
2026-05-06 18:46 57.90399 5.69929 35039 ft 470 kts 183°
2026-05-06 18:46 57.83870 5.70316 35041 ft 469 kts 183°
2026-05-06 18:47 57.77345 5.70702 35049 ft 469 kts 183°
2026-05-06 18:47 57.70826 5.71085 35041 ft 469 kts 183°
2026-05-06 18:48 57.64310 5.71467 35031 ft 468 kts 183°
2026-05-06 18:48 57.57798 5.71848 35035 ft 468 kts 183°
2026-05-06 18:49 57.51285 5.72227 35039 ft 468 kts 183°
2026-05-06 18:49 57.44780 5.72605 35036 ft 468 kts 183°
2026-05-06 18:50 57.38369 5.72975 35035 ft 468 kts 183°
2026-05-06 18:50 57.31878 5.73349 35037 ft 467 kts 183°
2026-05-06 18:51 57.25379 5.73722 35038 ft 467 kts 182°
2026-05-06 18:51 57.18886 5.74094 35039 ft 467 kts 182°
2026-05-06 18:52 57.12380 5.74465 35041 ft 467 kts 182°
2026-05-06 18:52 57.05872 5.74835 35040 ft 467 kts 182°
2026-05-06 18:53 56.99375 5.75203 35034 ft 467 kts 182°
2026-05-06 18:53 56.92875 5.75569 35035 ft 467 kts 182°
2026-05-06 18:54 56.86381 5.75935 35038 ft 467 kts 182°
2026-05-06 18:54 56.79887 5.76298 35041 ft 466 kts 182°
2026-05-06 18:55 56.74496 5.76599 35037 ft 466 kts 182°
2026-05-06 18:55 56.68014 5.76961 35036 ft 466 kts 182°
2026-05-06 18:56 56.61535 5.77320 35040 ft 466 kts 182°
2026-05-06 18:56 56.55059 5.77678 35037 ft 465 kts 182°
2026-05-06 18:57 56.48589 5.78035 35037 ft 465 kts 182°
2026-05-06 18:57 56.42121 5.78390 35035 ft 465 kts 182°
2026-05-06 18:58 56.35657 5.78744 35040 ft 465 kts 182°
2026-05-06 18:58 56.29196 5.79096 35034 ft 464 kts 182°
2026-05-06 18:59 56.22742 5.79447 35027 ft 464 kts 182°
2026-05-06 18:59 56.16291 5.79797 35034 ft 463 kts 182°
2026-05-06 19:00 56.09845 5.80145 35037 ft 463 kts 182°
2026-05-06 19:00 56.03405 5.80491 35037 ft 463 kts 182°
2026-05-06 19:01 55.96972 5.80836 35037 ft 462 kts 182°
2026-05-06 19:01 55.90538 5.81180 35034 ft 462 kts 182°
2026-05-06 19:02 55.84150 5.81520 35033 ft 462 kts 182°
2026-05-06 19:02 55.77729 5.81861 35030 ft 462 kts 182°
2026-05-06 19:03 55.71298 5.82202 35032 ft 462 kts 182°
2026-05-06 19:03 55.64869 5.82541 35033 ft 462 kts 182°
2026-05-06 19:04 55.58440 5.82879 35024 ft 462 kts 182°
2026-05-06 19:04 55.52006 5.83216 35024 ft 462 kts 182°
2026-05-06 19:05 55.45575 5.83552 35022 ft 462 kts 182°
2026-05-06 19:05 55.39141 5.83887 35025 ft 462 kts 182°
2026-05-06 19:06 55.32705 5.84221 35014 ft 463 kts 182°
2026-05-06 19:06 55.26264 5.84554 35018 ft 463 kts 182°
2026-05-06 19:07 55.19839 5.84887 35009 ft 453 kts 182°
2026-05-06 19:07 55.16737 5.85053 35006 ft 442 kts 182°
2026-05-06 19:07 55.13642 5.85209 35025 ft 449 kts 182°
2026-05-06 19:08 55.07296 5.85524 35031 ft 463 kts 182°
2026-05-06 19:08 55.00791 5.85858 35014 ft 469 kts 181°
2026-05-06 19:09 54.94269 5.86490 35014 ft 470 kts 179°
2026-05-06 19:09 54.87749 5.87490 35006 ft 470 kts 178°
2026-05-06 19:10 54.81251 5.88481 35000 ft 468 kts 178°
2026-05-06 19:10 54.74762 5.89408 35002 ft 467 kts 179°
2026-05-06 19:11 54.68289 5.90300 34999 ft 466 kts 179°
2026-05-06 19:11 54.61821 5.91183 34999 ft 466 kts 179°
2026-05-06 19:12 54.55347 5.92065 35000 ft 467 kts 178°
2026-05-06 19:12 54.48873 5.92947 34995 ft 467 kts 178°
2026-05-06 19:13 54.42378 5.93830 34993 ft 468 kts 178°
2026-05-06 19:13 54.35877 5.94710 34995 ft 469 kts 178°
2026-05-06 19:14 54.29406 5.95584 34995 ft 470 kts 178°
2026-05-06 19:14 54.22885 5.96462 34992 ft 471 kts 178°
2026-05-06 19:15 54.16349 5.97339 34987 ft 471 kts 178°
2026-05-06 19:15 54.09810 5.98214 34983 ft 471 kts 178°
2026-05-06 19:16 54.03268 5.99086 34981 ft 472 kts 178°
2026-05-06 19:16 53.96788 5.99947 34978 ft 472 kts 178°
2026-05-06 19:17 53.90244 6.00814 34977 ft 472 kts 178°
2026-05-06 19:17 53.83697 6.01679 34971 ft 472 kts 178°
2026-05-06 19:18 53.77797 6.02456 34968 ft 472 kts 178°
2026-05-06 19:18 53.73188 6.03062 34966 ft 472 kts 178°
2026-05-06 19:19 53.66644 6.03918 34963 ft 472 kts 178°
2026-05-06 19:19 53.60105 6.04772 34959 ft 471 kts 178°
2026-05-06 19:20 53.53559 6.05625 34955 ft 471 kts 178°
2026-05-06 19:20 53.47025 6.06473 34956 ft 472 kts 178°
2026-05-06 19:21 53.40473 6.07320 34954 ft 472 kts 178°
2026-05-06 19:21 53.33928 6.08164 34956 ft 472 kts 178°
2026-05-06 19:22 53.27384 6.09006 34958 ft 472 kts 178°
2026-05-06 19:22 53.20827 6.09847 34958 ft 472 kts 178°
2026-05-06 19:23 53.14282 6.10683 34956 ft 472 kts 178°
2026-05-06 19:23 53.07727 6.11518 34951 ft 472 kts 178°
2026-05-06 19:24 53.01174 6.12351 34938 ft 472 kts 178°
2026-05-06 19:24 52.94627 6.13180 34942 ft 472 kts 178°
2026-05-06 19:25 52.88077 6.14007 34932 ft 472 kts 178°
2026-05-06 19:25 52.81569 6.14827 34746 ft 465 kts 178°
2026-05-06 19:25 52.78352 6.15232 34464 ft 463 kts 178°
2026-05-06 19:26 52.75146 6.15634 34166 ft 461 kts 177°
2026-05-06 19:26 52.71956 6.16034 33870 ft 459 kts 177°
2026-05-06 19:26 52.68808 6.16427 33557 ft 456 kts 178°
2026-05-06 19:26 52.65670 6.16819 33256 ft 453 kts 178°
2026-05-06 19:27 52.62536 6.17210 32956 ft 451 kts 178°
2026-05-06 19:27 52.59411 6.17599 32660 ft 449 kts 177°
2026-05-06 19:27 52.56309 6.17984 32375 ft 446 kts 178°
2026-05-06 19:27 52.53218 6.18368 32079 ft 444 kts 177°
2026-05-06 19:28 52.50151 6.18748 31781 ft 442 kts 177°
2026-05-06 19:28 52.47086 6.19127 31499 ft 440 kts 177°
2026-05-06 19:28 52.44041 6.19504 31217 ft 438 kts 177°
2026-05-06 19:28 52.41009 6.19878 30934 ft 436 kts 177°
2026-05-06 19:29 52.37993 6.20250 30650 ft 434 kts 177°
2026-05-06 19:29 52.34990 6.20619 30370 ft 432 kts 177°
2026-05-06 19:29 52.32003 6.20986 30105 ft 430 kts 177°
2026-05-06 19:29 52.29015 6.21353 29545 ft 433 kts 177°
2026-05-06 19:30 52.25974 6.21724 28544 ft 445 kts 177°
2026-05-06 19:30 52.22847 6.22104 27774 ft 456 kts 177°
2026-05-06 19:30 52.19662 6.22493 27512 ft 461 kts 177°
2026-05-06 19:30 52.16445 6.22887 27315 ft 466 kts 177°
2026-05-06 19:31 52.13206 6.23283 27124 ft 465 kts 177°
2026-05-06 19:31 52.09986 6.23677 26941 ft 463 kts 177°
2026-05-06 19:31 52.03591 6.24454 26930 ft 461 kts 177°
2026-05-06 19:32 52.00392 6.24925 26929 ft 462 kts 172°
2026-05-06 19:32 51.97272 6.26228 26928 ft 466 kts 161°
2026-05-06 19:32 51.94319 6.28447 26934 ft 469 kts 152°
2026-05-06 19:32 51.91632 6.31458 26919 ft 471 kts 142°
2026-05-06 19:33 51.89104 6.34826 26920 ft 472 kts 141°
2026-05-06 19:33 51.86579 6.38217 26919 ft 472 kts 141°
2026-05-06 19:33 51.84047 6.41603 26919 ft 472 kts 142°
2026-05-06 19:33 51.81506 6.44969 26921 ft 472 kts 142°
2026-05-06 19:34 51.78997 6.48260 26920 ft 471 kts 142°
2026-05-06 19:34 51.76446 6.51583 26917 ft 470 kts 142°
2026-05-06 19:34 51.73863 6.54930 26919 ft 470 kts 142°
2026-05-06 19:34 51.71318 6.58219 26913 ft 469 kts 142°
2026-05-06 19:35 51.68808 6.61458 26914 ft 469 kts 142°
2026-05-06 19:35 51.66259 6.64743 26912 ft 468 kts 142°
2026-05-06 19:35 51.63713 6.68020 26909 ft 468 kts 142°
2026-05-06 19:35 51.61173 6.71285 26906 ft 468 kts 142°
2026-05-06 19:36 51.58626 6.74557 26906 ft 468 kts 142°
2026-05-06 19:36 51.56082 6.77817 26909 ft 468 kts 142°
2026-05-06 19:36 51.53532 6.81083 26901 ft 468 kts 142°
2026-05-06 19:36 51.50986 6.84338 26883 ft 467 kts 142°
2026-05-06 19:37 51.48451 6.87575 26699 ft 465 kts 142°
2026-05-06 19:37 51.45922 6.90798 26427 ft 465 kts 142°
2026-05-06 19:37 51.43385 6.94028 26164 ft 465 kts 143°
2026-05-06 19:37 51.41706 6.96162 26027 ft 464 kts 143°
2026-05-06 19:38 51.38339 7.00438 25947 ft 461 kts 143°
2026-05-06 19:38 51.35824 7.03625 25907 ft 462 kts 143°
2026-05-06 19:38 51.33305 7.06813 25909 ft 462 kts 143°
2026-05-06 19:38 51.30781 7.10004 25907 ft 462 kts 143°
2026-05-06 19:39 51.28263 7.13182 25900 ft 462 kts 143°
2026-05-06 19:39 51.25676 7.16228 25891 ft 460 kts 149°
2026-05-06 19:39 51.22868 7.18643 25901 ft 459 kts 155°
2026-05-06 19:39 51.19959 7.20743 25901 ft 459 kts 157°
2026-05-06 19:40 51.17040 7.22834 25886 ft 459 kts 156°
2026-05-06 19:40 51.14162 7.25028 25887 ft 460 kts 155°
2026-05-06 19:40 51.11292 7.27302 25875 ft 459 kts 154°
2026-05-06 19:40 51.08479 7.29621 25434 ft 454 kts 153°
2026-05-06 19:41 51.05715 7.31927 25075 ft 456 kts 153°
2026-05-06 19:41 51.03810 7.33511 24978 ft 456 kts 153°
2026-05-06 19:41 51.01003 7.35832 24419 ft 453 kts 153°
2026-05-06 19:41 50.98215 7.38127 23774 ft 450 kts 153°
2026-05-06 19:42 50.95447 7.40400 23110 ft 446 kts 154°
2026-05-06 19:42 50.92707 7.42648 22440 ft 442 kts 153°
2026-05-06 19:42 50.89981 7.44883 21800 ft 438 kts 154°
2026-05-06 19:42 50.87288 7.47088 21157 ft 434 kts 154°
2026-05-06 19:43 50.84625 7.49264 20551 ft 430 kts 154°
2026-05-06 19:43 50.81975 7.51427 19926 ft 427 kts 154°
2026-05-06 19:43 50.79340 7.53575 19317 ft 424 kts 154°
2026-05-06 19:43 50.76723 7.55706 18744 ft 421 kts 154°
2026-05-06 19:44 50.74131 7.57816 18195 ft 418 kts 154°
2026-05-06 19:44 50.71553 7.59910 17546 ft 415 kts 154°
2026-05-06 19:44 50.68996 7.61984 17022 ft 410 kts 154°
2026-05-06 19:44 50.66508 7.64002 16268 ft 396 kts 154°
2026-05-06 19:45 50.64072 7.65973 15361 ft 391 kts 154°
2026-05-06 19:45 50.61653 7.67928 15096 ft 394 kts 154°
2026-05-06 19:45 50.59192 7.69912 14928 ft 399 kts 154°
2026-05-06 19:45 50.56732 7.71896 14283 ft 400 kts 155°
2026-05-06 19:46 50.54739 7.73498 13778 ft 404 kts 155°
2026-05-06 19:46 50.52247 7.75502 13352 ft 400 kts 154°
2026-05-06 19:46 50.49793 7.77476 12907 ft 395 kts 154°
2026-05-06 19:46 50.47361 7.79428 12625 ft 392 kts 154°
2026-05-06 19:47 50.44947 7.81363 12441 ft 387 kts 154°
2026-05-06 19:47 50.42633 7.83353 12167 ft 383 kts 148°
2026-05-06 19:47 50.40479 7.85839 11811 ft 384 kts 142°
2026-05-06 19:47 50.38428 7.88515 11528 ft 383 kts 141°
2026-05-06 19:48 50.36392 7.91199 11276 ft 381 kts 142°
2026-05-06 19:48 50.34352 7.93830 11018 ft 379 kts 142°
2026-05-06 19:48 50.32300 7.96414 10743 ft 378 kts 143°
2026-05-06 19:48 50.30242 7.98966 10469 ft 377 kts 143°
2026-05-06 19:49 50.28188 8.01499 10192 ft 375 kts 143°
2026-05-06 19:49 50.26171 8.04065 9940 ft 371 kts 138°
2026-05-06 19:49 50.24472 8.07113 9875 ft 373 kts 128°
2026-05-06 19:49 50.22932 8.10376 9842 ft 375 kts 128°
2026-05-06 19:50 50.21390 8.13662 9865 ft 376 kts 128°
2026-05-06 19:50 50.19828 8.16936 9842 ft 376 kts 129°
2026-05-06 19:50 50.18246 8.20190 9852 ft 376 kts 129°
2026-05-06 19:50 50.16655 8.23426 9838 ft 377 kts 129°
2026-05-06 19:51 50.15054 8.26664 9844 ft 377 kts 129°
2026-05-06 19:51 50.13450 8.29897 9835 ft 377 kts 129°
2026-05-06 19:51 50.11863 8.33124 9717 ft 370 kts 127°
2026-05-06 19:51 50.10789 8.36757 9169 ft 372 kts 103°
2026-05-06 19:52 50.10639 8.40768 8629 ft 374 kts 84°
2026-05-06 19:52 50.11281 8.44660 8457 ft 365 kts 70°
2026-05-06 19:52 50.12161 8.48247 8326 ft 345 kts 69°
2026-05-06 19:52 50.13009 8.51651 8199 ft 328 kts 69°
2026-05-06 19:53 50.13810 8.54886 8091 ft 311 kts 69°
2026-05-06 19:53 50.14559 8.57959 7899 ft 295 kts 69°
2026-05-06 19:53 50.15279 8.60948 7868 ft 295 kts 70°
2026-05-06 19:53 50.15994 8.63945 7812 ft 293 kts 70°
2026-05-06 19:54 50.16698 8.66905 7412 ft 291 kts 70°
2026-05-06 19:54 50.17395 8.69837 6770 ft 284 kts 70°
2026-05-06 19:54 50.18069 8.72677 6146 ft 275 kts 70°
2026-05-06 19:54 50.18722 8.75434 5494 ft 267 kts 70°
2026-05-06 19:55 50.19358 8.78123 4858 ft 261 kts 70°
2026-05-06 19:55 50.19975 8.80739 4282 ft 252 kts 69°
2026-05-06 19:55 50.20585 8.83330 4092 ft 260 kts 69°
2026-05-06 19:55 50.21213 8.85997 3996 ft 261 kts 69°
2026-05-06 19:56 50.21828 8.88616 3978 ft 252 kts 69°
2026-05-06 19:56 50.22421 8.91144 3965 ft 245 kts 69°
2026-05-06 19:56 50.23004 8.93631 3965 ft 243 kts 69°
2026-05-06 19:56 50.23580 8.96095 3958 ft 241 kts 69°
2026-05-06 19:57 50.24155 8.98552 3961 ft 240 kts 69°
2026-05-06 19:57 50.24728 9.01003 3965 ft 240 kts 69°
2026-05-06 19:57 50.25300 9.03455 3967 ft 240 kts 69°
2026-05-06 19:57 50.25632 9.05970 3955 ft 237 kts 95°
2026-05-06 19:58 50.25341 9.07766 3967 ft 238 kts 119°
2026-05-06 19:58 50.24304 9.09628 3974 ft 238 kts 150°
2026-05-06 19:58 50.22812 9.10708 3968 ft 235 kts 166°
2026-05-06 19:58 50.21216 9.10822 3966 ft 229 kts 198°
2026-05-06 19:59 50.19834 9.09686 3965 ft 224 kts 219°
2026-05-06 19:59 50.18624 9.08138 3965 ft 226 kts 221°
2026-05-06 19:59 50.17404 9.06579 3977 ft 227 kts 221°
2026-05-06 19:59 50.16177 9.05024 3977 ft 228 kts 220°
2026-05-06 20:00 50.14967 9.03423 3970 ft 225 kts 230°
2026-05-06 20:00 50.14218 9.01329 3981 ft 220 kts 250°
2026-05-06 20:00 50.13682 8.99133 3966 ft 211 kts 249°
2026-05-06 20:00 50.13184 8.97089 3939 ft 193 kts 250°
2026-05-06 20:01 50.12724 8.95172 4013 ft 188 kts 250°
2026-05-06 20:01 50.12285 8.93332 3988 ft 174 kts 250°
2026-05-06 20:01 50.11877 8.91621 3980 ft 166 kts 250°
2026-05-06 20:01 50.11470 8.89911 3991 ft 170 kts 250°
2026-05-06 20:02 50.11055 8.88167 4001 ft 173 kts 250°
2026-05-06 20:02 50.10636 8.86411 3994 ft 172 kts 250°
2026-05-06 20:02 50.10219 8.84661 3923 ft 174 kts 250°
2026-05-06 20:02 50.09797 8.82893 3674 ft 173 kts 251°
2026-05-06 20:03 50.09380 8.81147 3456 ft 171 kts 251°
2026-05-06 20:03 50.08968 8.79421 3232 ft 170 kts 251°
2026-05-06 20:03 50.08552 8.77676 3012 ft 172 kts 251°
2026-05-06 20:03 50.08137 8.75941 2768 ft 168 kts 252°
2026-05-06 20:04 50.07746 8.74305 2557 ft 154 kts 252°
2026-05-06 20:04 50.07389 8.72810 2336 ft 143 kts 253°
2026-05-06 20:04 50.07043 8.71359 2186 ft 144 kts 253°
2026-05-06 20:04 50.06695 8.69899 1951 ft 144 kts 253°
2026-05-06 20:05 50.06350 8.68456 1757 ft 140 kts 253°
2026-05-06 20:05 50.06016 8.67056 1575 ft 138 kts 253°
2026-05-06 20:05 50.05758 8.65612 1396 ft 139 kts 264°
2026-05-06 20:05 50.05720 8.64113 1248 ft 139 kts 270°
2026-05-06 20:06 50.05476 8.62647 1040 ft 140 kts 245°
2026-05-06 20:06 50.05098 8.61241 855 ft 144 kts 253°
2026-05-06 20:06 50.04770 8.59766 638 ft 143 kts 252°
2026-05-06 20:06 50.04419 8.58342 411 ft 139 kts 251°
2026-05-06 20:07 50.04105 8.56982 369 ft 120 kts 249°
2026-05-06 20:07 50.03879 8.56039 365 ft 66 kts 249°
2026-05-06 20:07 50.03735 8.55438 359 ft 58 kts 249°
2026-05-06 20:07 50.03686 8.55088 352 ft 24 kts 277°
2026-05-06 20:08 50.03698 8.54975 355 ft 8 kts 277°
2026-05-06 20:08 50.03701 8.54940 351 ft 0 kts 278°
2026-05-06 20:09 50.03704 8.54914 349 ft 6 kts 279°
2026-05-06 20:09 50.03716 8.54806 352 ft 14 kts 279°
2026-05-06 20:09 50.03729 8.54684 355 ft 11 kts 279°
2026-05-06 20:10 50.03716 8.54565 356 ft 12 kts 252°
2026-05-06 20:10 50.03692 8.54433 357 ft 13 kts 274°
2026-05-06 20:10 50.03750 8.54364 359 ft 10 kts 341°
2026-05-06 20:10 50.03816 8.54327 359 ft 10 kts 340°
2026-05-06 20:11 50.03884 8.54289 356 ft 11 kts 340°
2026-05-06 20:11 50.03948 8.54252 356 ft 10 kts 340°
2026-05-06 20:11 50.04015 8.54243 356 ft 6 kts 43°
2026-05-06 20:11 50.04019 8.54287 357 ft 1 kts 86°
2026-05-06 20:12 50.04020 8.54295 360 ft 1 kts 80°
2026-05-06 20:12 50.04021 8.54304 360 ft 1 kts 81°
2026-05-06 20:12 50.04022 8.54314 360 ft 1 kts 76°
2026-05-06 20:12 50.04024 8.54323 360 ft 1 kts 74°
2026-05-06 20:13 50.04026 8.54333 358 ft 1 kts 73°
2026-05-06 20:13 50.04028 8.54343 361 ft 0 kts 72°